Voltar ao catálogo

INTELSAT 4-F7

AtivoComunicaçõesGEO
NORAD 6796·PAYLOAD· XX

Lançado Aug 23, 1973 de Cape Canaveral Space Force Station

Loading…

TLE

AtualizadoSource: Space-Track

Época: Sep 14, 2026, 13:20 UTC

1  6796U 73058A   26257.55573080 -.00000010  00000-0  00000+0 0  9997
2  6796   7.0342 296.1828 0005069 230.8446 288.3998  0.99143165136532

Acompanhe INTELSAT 4-F7 em tempo real com AllMySat

Download on the App Store